Temp
71 78 82 81 79 79 71 70 61 65 71 75 78 81 83 85 86 87 85 81 80 84 85 83 81 80 82 81 82 81 79 78 77 76 77 76 77 78 79 80 80 79 79 79
67 78 80 80 81 81 79 78 74 72 68 76 82 81 81 85 85 85 84 86 83 83 83 83 82 82 82 81 80 80 78 77 78 78 78 77 78 79 79 79 79 79 78 78
59 73 74 67 76 78 77 79 78 69 73 77 77 82 80 81 85 84 83 83 83 82 82 82 81 81 79 79 79 78 78 78 78 78 77 78 78 78 78 77 78 77 77 77
60 62 54 72 81 85 82 84 83 81 79 81 80 81 82 83 82 85 84 83 83 83 83 82 83 81 81 80 78 78 77 78 78 77 77 78 77 77 77 77 77 77 77 78
58 57 68 77 81 78 73 73 81 78 79 80 83 83 71 68 80 84 85 84 86 86 84 83 81 81 81 79 77 77 77 77 78 78 77 77 77 76 76 76 76 75 76 76
61 56 56 72 81 84 82 68 81 80 77 79 78 64 63 68 70 68 86 88 88 87 85 83 81 81 79 78 77 76 77 78 79 78 77 76 76 76 76 76 76 76 76 75
63 60 66 72 76 83 65 65 81 80 77 76 64 65 64 68 70 72 70 80 87 86 83 82 81 80 76 76 76 78 79 78 78 78 77 77 76 76 76 75 75 74 74 74
63 59 58 75 79 73 75 75 78 81 79 67 67 67 65 65 66 70 70 70 83 82 80 79 79 78 77 76 79 79 78 78 77 77 79 79 76 75 75 74 73 72 73 73
62 62 69 74 71 78 82 80 77 78 75 72 70 71 72 68 67 63 66 73 81 82 81 80 80 79 77 78 79 78 77 76 77 77 77 77 75 74 73 73 72 75 70 69
65 68 70 71 79 88 82 83 86 86 79 77 74 73 74 73 73 70 74 81 86 85 83 80 79 81 80 78 77 77 77 75 73 75 75 75 76 75 73 76 71 71 70 69
62 65 67 70 79 84 85 90 90 90 81 80 77 73 74 71 72 72 76 85 79 76 76 78 80 79 79 79 78 76 77 73 75 75 74 74 74 75 76 71 70 70 69 68
60 64 68 65 75 78 72 88 88 88 88 83 78 72 67 69 68 81 73 71 70 70 69 74 73 74 75 76 77 74 74 72 69 72 70 72 72 71 65 60 58 55 51 59
60 66 65 69 73 74 69 89 90 87 86 84 83 75 70 67 78 73 78 74 67 66 72 74 73 72 74 75 75 75 71 71 71 71 71 70 69 69 68 68 58 59 53 52
69 65 62 68 68 74 86 92 86 88 85 83 82 82 80 78 77 77 75 76 77 75 73 71 71 71 74 74 75 75 72 67 70 70 69 69 69 69 67 65 64 65 54 57
70 67 67 67 67 70 84 88 84 81 81 81 81 79 79 76 76 76 75 74 74 73 72 72 70 71 74 74 73 72 71 70 70 70 69 68 68 67 66 65 64 64 67 61
74 69 66 64 64 67 86 85 81 80 80 79 78 77 77 77 76 75 74 74 73 70 71 70 70 70 71 71 70 70 70 71 70 67 67 66 66 65 64 63 63 63 62 58
65 59 60 66 67 85 84 84 82 80 78 77 75 75 75 74 73 70 71 72 71 70 69 69 69 70 70 68 68 67 68 68 68 67 65 65 68 65 63 62 59 59 58 56
75 74 73 74 85 84 82 81 79 77 75 75 74 74 72 71 68 69 70 70 69 68 68 67 68 69 67 67 67 68 68 67 66 65 64 65 63 62 61 60 59 58 58 57
70 70 71 71 70 83 80 78 77 77 75 75 74 71 71 71 70 69 70 68 66 65 66 67 69 68 66 67 67 66 68 66 65 64 65 63 64 62 59 58 56 56 56 58
68 69 67 66 65 71 74 75 75 75 74 74 72 70 69 69 69 69 68 67 66 67 67 67 67 66 65 67 69 66 66 65 64 63 65 61 60 59 57 54 55 59 58 57
65 65 64 63 62 65 68 70 74 72 72 72 70 68 67 67 68 69 67 64 63 66 65 65 64 64 63 65 65 65 67 67 67 65 64 59 59 57 55 54 57 56 53 52
66 64 64 63 64 65 67 73 73 72 71 70 69 68 67 65 66 66 66 64 63 60 64 63 61 61 63 65 65 67 66 65 64 61 60 59 57 55 54 53 54 55 53 52
63 65 66 66 66 66 71 72 72 71 70 69 68 67 67 67 67 65 62 64 64 62 63 60 59 62 63 64 64 64 65 64 65 62 60 59 57 56 54 54 52 53 53 52
65 66 66 68 71 71 70 71 72 71 70 70 70 70 69 66 65 65 62 59 59 62 61 59 59 59 60 64 63 61 60 59 59 59 58 55 56 55 54 54 53 52 52 50
68 70 71 71 71 72 74 72 71 71 72 69 70 69 70 69 66 64 63 60 57 61 59 56 58 58 60 63 62 58 57 56 56 56 56 55 54 53 53 52 52 51 50 49
67 69 69 70 72 74 73 73 70 71 70 68 68 69 70 69 66 64 63 61 61 60 61 59 60 59 61 60 60 58 56 56 55 55 55 54 54 53 52 52 51 50 49 48
73 67 72 71 73 72 73 72 70 69 70 70 68 67 68 68 67 65 63 64 63 63 61 61 60 60 60 59 59 58 55 55 54 54 54 53 53 52 52 51 50 49 49 47
MSLP
999.32 998.88 998.22 997.42 997.68 998.11 998.85 999.13 999.91 1000.01 999.95 999.27 999.28 999.43 999.61 999.93 1000.44 1001.65 1002.74 1003.00 1003.80 1004.30 1004.84 1005.28 1006.29 1007.26 1008.02 1008.76 1009.55 1010.37 1011.20 1011.84 1012.48 1012.83 1013.02 1013.37 1013.68 1013.76 1013.88 1013.98 1014.09 1014.22 1014.29 1014.29
999.84 999.02 998.14 997.50 997.00 997.13 997.47 997.95 998.23 998.85 999.51 999.03 998.19 998.92 999.95 1000.06 1000.68 1001.36 1002.01 1002.71 1003.37 1003.73 1004.61 1005.53 1006.42 1007.29 1008.05 1008.98 1009.73 1010.35 1011.12 1011.84 1012.26 1012.64 1013.00 1013.25 1013.42 1013.51 1013.56 1013.67 1013.77 1013.88 1013.86 1014.02
1000.38 999.30 998.44 997.86 996.44 996.33 996.59 996.88 997.36 998.00 998.81 999.11 999.10 999.64 1000.08 1000.37 1000.54 1001.16 1001.98 1002.65 1003.49 1004.18 1004.98 1005.81 1006.58 1007.31 1008.37 1009.18 1009.90 1010.61 1011.21 1011.81 1012.13 1012.38 1012.74 1013.00 1013.13 1013.18 1013.38 1013.30 1013.51 1013.64 1013.65 1013.71
1000.81 1000.02 999.22 997.58 996.11 996.01 996.14 996.26 996.39 997.24 998.53 998.88 999.15 999.67 1000.73 1001.91 1001.15 1001.56 1002.03 1002.57 1003.39 1004.38 1005.52 1006.43 1006.96 1007.71 1008.44 1009.06 1009.84 1010.60 1011.13 1011.50 1011.88 1012.23 1012.49 1012.74 1012.98 1013.20 1013.22 1013.27 1013.45 1013.56 1013.50 1013.46
1000.79 1000.41 999.27 997.57 996.76 996.77 997.34 997.32 997.04 998.01 998.95 999.57 999.99 1000.89 1004.05 1004.66 1004.79 1002.94 1002.25 1002.88 1003.08 1004.12 1005.15 1005.96 1007.14 1007.76 1008.46 1009.25 1009.92 1010.48 1011.03 1011.32 1011.46 1012.00 1012.38 1012.64 1012.95 1013.16 1013.15 1013.27 1013.43 1013.43 1013.24 1013.12
1000.69 1000.54 999.79 998.14 997.04 996.38 996.35 998.12 997.85 998.21 999.30 1000.01 1000.74 1003.32 1005.68 1004.94 1006.52 1007.06 1004.13 1003.07 1003.68 1004.33 1005.28 1006.15 1006.89 1007.83 1008.82 1009.61 1010.03 1010.63 1010.92 1011.35 1011.47 1011.90 1012.32 1012.68 1012.98 1013.12 1013.13 1013.24 1013.34 1013.35 1013.25 1013.12
1000.60 1000.47 999.76 998.79 997.89 996.68 997.86 999.39 998.43 998.18 999.04 1000.27 1002.58 1004.84 1005.98 1004.49 1006.52 1006.52 1006.70 1006.74 1004.36 1005.04 1006.08 1006.72 1007.50 1008.17 1009.12 1009.71 1010.27 1010.48 1010.82 1011.20 1011.42 1011.74 1012.11 1012.40 1012.77 1012.96 1013.03 1013.19 1013.16 1013.23 1013.28 1012.93
1001.00 1000.92 1000.43 998.74 997.76 997.49 997.96 998.66 998.86 998.88 999.85 1002.15 1003.82 1005.48 1006.06 1006.92 1008.73 1008.42 1008.36 1009.39 1005.55 1006.12 1007.02 1007.31 1007.68 1008.54 1009.46 1009.89 1010.03 1010.28 1010.72 1011.33 1011.71 1011.87 1012.04 1012.31 1012.77 1012.84 1012.88 1013.08 1013.21 1013.10 1013.14 1013.14
1003.00 1003.16 1002.44 1001.15 998.53 998.01 997.41 997.54 999.17 999.04 1000.34 1001.30 1003.56 1004.36 1004.57 1003.91 1007.88 1008.75 1009.76 1009.31 1005.85 1006.42 1007.31 1007.34 1007.65 1008.43 1009.26 1009.38 1009.84 1010.46 1011.06 1011.53 1011.86 1011.94 1012.20 1012.40 1012.70 1012.78 1012.96 1012.91 1013.00 1013.06 1013.25 1013.10
1003.31 1003.36 1002.51 1002.52 998.98 997.03 997.09 998.37 998.60 998.50 999.80 1000.85 1001.74 1003.48 1003.79 1003.96 1004.96 1007.47 1007.49 1006.27 1005.71 1006.22 1007.35 1007.40 1007.77 1008.52 1009.14 1009.58 1009.87 1010.48 1010.92 1011.74 1012.05 1012.14 1012.21 1012.38 1012.44 1012.54 1012.78 1012.94 1012.98 1013.07 1013.15 1013.20
1004.41 1005.05 1004.55 1003.10 999.86 998.56 998.46 998.36 997.97 997.98 999.49 1000.48 1001.79 1003.42 1004.49 1005.19 1006.28 1006.67 1006.52 1005.91 1006.04 1007.00 1007.82 1007.89 1008.22 1008.53 1009.11 1009.72 1010.32 1010.78 1010.98 1011.57 1012.01 1012.18 1012.36 1012.51 1012.51 1012.47 1012.77 1012.88 1012.89 1013.20 1013.60 1013.61
1005.41 1005.70 1005.70 1003.68 1000.57 1001.19 1000.54 998.90 997.81 998.06 998.74 1000.66 1002.28 1004.47 1006.12 1007.08 1006.68 1006.10 1005.74 1006.06 1006.60 1007.60 1008.19 1008.72 1009.59 1010.14 1009.99 1010.03 1010.44 1011.28 1011.74 1011.89 1011.91 1012.29 1012.48 1012.60 1012.66 1012.72 1012.59 1012.88 1013.00 1013.21 1013.79 1013.87
1006.66 1006.46 1005.88 1005.32 1003.06 1002.30 1000.99 998.80 997.82 998.24 999.06 1000.19 1001.96 1003.85 1005.37 1005.86 1006.18 1005.14 1005.93 1006.35 1007.50 1008.74 1008.80 1008.77 1010.21 1010.68 1010.46 1010.58 1010.84 1011.17 1011.90 1012.20 1012.16 1012.46 1012.80 1012.93 1012.89 1013.04 1013.43 1013.22 1013.23 1013.59 1014.26 1014.62
1005.26 1004.83 1005.34 1002.96 1002.69 1001.86 999.62 997.57 997.98 998.96 999.85 1001.05 1002.11 1003.18 1004.02 1004.32 1005.28 1005.85 1006.38 1006.84 1007.94 1008.90 1009.46 1010.13 1010.42 1010.69 1010.70 1011.02 1011.21 1011.35 1011.98 1012.33 1012.31 1012.54 1012.74 1012.90 1013.08 1013.35 1013.54 1013.88 1014.18 1014.53 1014.87 1014.81
1003.54 1004.70 1004.04 1003.89 1002.97 1003.13 1001.78 998.15 998.74 999.93 1000.62 1001.82 1002.63 1003.24 1003.98 1004.88 1005.65 1006.36 1007.06 1007.44 1008.91 1009.57 1009.74 1010.15 1010.59 1011.04 1010.96 1011.16 1011.36 1011.64 1012.12 1012.06 1012.23 1012.58 1012.89 1013.09 1013.44 1013.68 1013.86 1014.13 1014.52 1014.96 1014.94 1015.06
1002.77 1005.36 1006.32 1005.16 1002.66 1002.02 999.16 999.34 999.37 1000.50 1001.30 1002.26 1002.93 1003.73 1004.53 1005.34 1006.38 1007.12 1007.66 1008.17 1008.80 1009.55 1009.84 1010.25 1010.61 1011.14 1011.18 1011.40 1011.75 1011.86 1011.94 1011.86 1012.30 1013.00 1013.42 1013.60 1013.77 1014.03 1014.45 1014.93 1015.36 1015.59 1015.97 1016.60
1003.12 1005.25 1004.94 1004.34 1002.02 999.22 999.32 999.30 999.99 1001.01 1001.98 1002.79 1003.62 1004.08 1004.87 1005.79 1006.80 1007.63 1008.24 1008.72 1009.29 1010.02 1010.58 1010.94 1011.39 1011.49 1011.70 1011.98 1012.20 1012.36 1012.21 1012.61 1013.03 1013.51 1013.80 1014.07 1014.19 1014.72 1015.27 1015.66 1016.02 1016.24 1016.70 1017.14
1001.81 1001.28 1001.55 1002.43 997.98 998.78 999.34 999.87 1001.14 1002.48 1003.32 1003.78 1004.19 1004.86 1005.84 1006.65 1007.68 1008.41 1008.97 1009.35 1009.78 1010.30 1010.80 1011.28 1011.46 1011.90 1012.32 1012.46 1012.47 1012.55 1012.74 1013.40 1013.66 1013.83 1014.16 1014.34 1014.93 1015.46 1015.90 1016.23 1016.56 1016.94 1017.41 1017.48
1001.59 1001.21 1000.79 999.86 1001.86 996.66 998.03 1000.51 1002.19 1003.20 1003.77 1004.73 1005.34 1006.08 1006.84 1007.58 1008.13 1008.75 1009.32 1010.00 1010.62 1011.13 1011.62 1011.73 1011.89 1012.40 1012.80 1012.85 1012.76 1012.93 1013.30 1013.77 1013.92 1014.27 1014.50 1014.91 1015.66 1016.28 1016.66 1016.95 1017.27 1017.64 1017.88 1017.87
1001.68 1001.65 1000.92 1000.11 1000.61 998.78 999.40 1000.87 1003.14 1004.28 1004.96 1005.29 1005.95 1007.17 1007.84 1008.46 1008.94 1009.52 1009.98 1010.67 1011.10 1011.55 1012.00 1012.32 1012.46 1012.90 1013.15 1013.12 1013.23 1013.41 1013.66 1014.00 1014.32 1014.67 1015.06 1015.59 1016.23 1016.83 1017.29 1017.58 1017.81 1017.98 1018.01 1017.98
1001.57 1001.46 1001.80 1001.98 1002.98 1004.36 1003.07 1002.82 1003.90 1004.94 1005.76 1006.30 1006.61 1007.52 1008.48 1009.20 1009.78 1010.38 1010.89 1011.38 1011.84 1011.87 1012.38 1012.67 1012.94 1013.27 1013.45 1013.43 1013.56 1013.69 1013.91 1014.38 1014.73 1015.15 1015.71 1016.22 1016.68 1017.26 1017.64 1017.93 1018.07 1018.04 1018.08 1017.99
1001.92 1001.65 1002.32 1002.66 1007.04 1006.71 1006.96 1005.78 1005.04 1005.61 1006.75 1007.06 1007.39 1008.06 1008.82 1009.70 1010.38 1010.90 1011.41 1011.65 1012.16 1012.26 1012.80 1013.28 1013.56 1013.57 1013.61 1013.64 1013.85 1014.05 1014.33 1014.65 1015.03 1015.56 1015.94 1016.42 1016.88 1017.30 1017.70 1017.91 1017.97 1017.75 1017.72 1017.61
1002.94 1002.93 1003.14 1003.67 1003.90 1004.42 1005.85 1006.29 1007.00 1007.22 1007.31 1007.03 1007.56 1008.19 1009.08 1009.99 1010.78 1011.02 1011.94 1012.31 1012.41 1012.72 1013.34 1013.75 1013.82 1013.76 1013.76 1013.89 1014.15 1014.44 1014.72 1015.04 1015.31 1015.67 1015.96 1016.18 1016.65 1017.11 1017.48 1017.62 1017.72 1017.76 1017.68 1017.76
1002.40 1002.66 1002.52 1002.82 1003.00 1003.02 1004.73 1005.88 1006.89 1007.13 1007.11 1007.10 1007.76 1008.08 1009.08 1010.25 1011.42 1011.60 1011.84 1012.40 1012.91 1013.10 1013.53 1013.88 1014.04 1014.04 1014.04 1014.16 1014.53 1014.99 1015.37 1015.67 1015.92 1016.12 1016.30 1016.47 1016.95 1017.27 1017.44 1017.52 1017.70 1017.78 1017.91 1018.07
1002.07 1002.28 1001.96 1002.08 1002.27 1002.51 1002.60 1003.65 1005.82 1006.45 1006.82 1007.48 1008.05 1008.48 1009.11 1009.92 1010.85 1011.88 1012.14 1012.74 1013.34 1013.53 1013.84 1014.06 1014.18 1014.17 1014.23 1014.37 1014.74 1015.31 1015.76 1016.06 1016.30 1016.49 1016.69 1016.94 1017.22 1017.52 1017.60 1017.70 1017.84 1018.00 1018.10 1018.26
1002.60 1002.84 1002.86 1003.12 1003.19 1003.27 1003.45 1004.32 1005.39 1006.51 1007.23 1007.80 1008.23 1008.77 1009.48 1010.40 1011.40 1011.82 1012.28 1012.79 1013.40 1013.61 1013.85 1014.16 1014.22 1014.23 1014.24 1014.54 1014.98 1015.53 1015.96 1016.36 1016.67 1016.88 1017.06 1017.28 1017.50 1017.68 1017.80 1017.89 1018.00 1018.17 1018.30 1018.36
1002.56 1002.58 1002.76 1002.49 1002.88 1003.14 1003.78 1004.19 1004.82 1006.02 1006.90 1007.64 1008.71 1009.44 1009.86 1010.66 1011.12 1011.66 1012.31 1012.86 1013.44 1013.66 1013.84 1014.07 1014.11 1014.18 1014.45 1014.81 1015.22 1015.68 1016.09 1016.53 1016.86 1017.12 1017.32 1017.57 1017.76 1017.90 1018.02 1018.07 1018.17 1018.24 1018.21 1018.28
Wind_Speed
8 9 12 8 14 12 8 10 5 4 5 5 9 10 9 9 8 12 14 11 13 12 14 14 12 10 10 10 12 12 8 7 7 7 5 5 5 5 6 5 4 6 5 6
8 10 11 13 7 13 11 11 8 6 2 6 8 11 7 12 10 8 7 15 17 18 17 16 15 13 12 11 10 9 8 8 7 7 7 7 6 4 2 3 4 4 6 6
7 9 9 7 6 6 4 9 10 7 9 6 5 9 9 9 11 10 14 17 17 17 15 14 14 13 12 9 8 8 8 7 7 7 6 5 5 5 6 5 5 6 6 6
6 5 5 12 5 7 9 7 10 12 14 12 12 9 5 8 7 13 17 17 16 15 13 13 12 12 11 10 9 8 7 7 7 7 6 6 5 5 5 4 5 5 6 6
4 4 8 7 8 3 8 7 9 14 9 5 6 4 16 21 24 5 17 14 14 15 14 14 12 12 12 10 8 7 7 7 7 6 6 5 4 2 2 3 3 3 4 5
3 4 6 12 3 4 5 1 1 11 8 8 6 6 4 12 16 20 2 13 14 15 14 13 13 12 12 9 8 7 7 6 6 6 7 6 5 4 2 1 3 3 6 5
5 5 2 6 8 2 7 8 4 7 9 7 8 6 8 19 14 21 12 22 17 16 13 11 9 9 8 8 8 7 7 7 7 7 7 6 4 2 0 3 4 5 6 6
2 3 7 7 4 6 8 4 5 6 8 22 19 18 23 18 5 12 21 25 15 14 10 8 9 8 8 8 7 8 8 7 7 6 3 4 4 0 3 4 5 7 4 4
4 1 9 17 1 5 3 7 6 5 17 22 22 14 23 27 7 17 24 22 11 13 12 8 9 8 8 8 9 8 8 7 6 5 4 3 2 4 4 5 4 4 1 2
6 8 11 18 14 8 7 8 12 9 19 18 12 14 11 24 21 16 18 9 13 16 14 11 7 6 8 8 8 8 8 7 3 4 4 4 3 3 3 3 2 2 2 2
3 9 4 12 13 4 4 11 7 10 17 18 14 8 12 7 8 9 7 11 11 12 8 8 8 11 9 8 8 6 6 6 4 2 1 2 2 3 2 2 0 2 4 3
2 4 1 9 22 18 13 11 8 8 12 15 16 20 26 20 11 13 11 6 7 9 11 13 12 6 7 7 7 6 5 4 3 3 2 2 4 5 4 8 11 10 10 9
3 8 4 18 14 23 28 14 8 9 9 17 25 24 26 21 10 16 11 10 10 8 7 12 14 2 7 6 7 6 4 2 4 5 4 4 4 4 5 6 11 13 16 14
11 8 8 17 14 16 19 10 17 19 17 19 20 18 18 17 15 17 13 12 15 14 12 8 8 6 6 6 6 5 7 9 5 4 4 4 4 4 4 4 4 4 5 12
11 8 4 21 24 24 23 19 20 16 16 15 16 18 18 17 16 13 11 10 15 13 9 10 9 7 7 7 6 5 5 5 5 4 3 4 5 6 5 5 5 5 6 11
7 22 17 22 42 41 15 16 19 15 15 15 15 16 16 17 15 12 9 8 12 11 11 10 9 7 8 8 8 6 4 10 7 5 5 4 5 5 6 5 7 6 8 8
16 17 25 26 26 14 17 16 15 14 14 15 14 14 14 15 16 15 14 13 12 11 8 8 7 7 8 8 7 4 2 6 8 6 5 4 5 7 7 6 5 5 5 9
7 10 6 13 13 18 18 18 16 15 13 13 12 12 11 12 14 13 12 11 11 9 8 7 7 8 8 6 6 5 5 5 4 5 4 5 7 6 6 6 6 7 8 8
10 13 14 21 34 26 24 20 17 16 14 12 11 9 10 13 12 11 11 11 9 8 4 6 4 7 7 7 6 3 5 5 5 5 6 9 8 7 7 6 6 6 5 6
12 14 19 27 32 19 21 19 15 12 8 11 12 9 8 8 8 9 9 8 6 5 7 8 9 7 6 7 7 5 6 6 6 6 7 6 6 6 6 7 5 5 4 4
10 13 20 26 18 22 17 7 13 12 10 10 12 10 9 9 8 11 11 8 5 8 9 10 6 4 4 4 5 5 5 5 5 6 7 5 5 6 5 5 4 2 2 1
16 15 17 25 13 6 10 8 9 9 10 12 11 11 11 10 9 9 7 8 4 6 6 5 4 5 4 3 4 3 5 5 6 5 5 5 5 5 5 3 1 4 2 3
14 15 17 22 24 19 5 5 3 7 10 11 9 8 8 7 6 9 7 4 5 7 6 4 4 5 5 5 4 4 4 5 4 5 4 4 5 5 4 4 2 2 4 4
18 18 16 15 16 17 15 11 8 6 7 8 7 8 10 8 6 6 7 9 8 8 5 5 5 7 5 5 5 6 6 6 6 5 5 7 5 5 4 4 4 4 5 6
16 17 19 19 18 14 20 17 11 9 9 8 6 7 10 6 8 6 6 6 8 7 5 5 4 2 2 3 5 6 6 5 4 5 5 5 5 5 4 4 4 4 4 5
10 8 8 8 8 9 10 11 9 8 7 5 4 6 8 9 8 8 7 6 5 7 5 4 2 3 4 6 6 6 6 5 5 4 5 5 5 4 4 4 4 4 4 4
10 10 8 5 6 7 9 10 9 8 7 6 9 7 9 9 9 9 8 6 5 4 5 4 4 5 5 5 6 6 6 5 5 4 5 4 4 4 4 3 3 3 3 4
Wind_Direction
262 274 281 254 189 214 229 240 163 222 147 153 142 127 127 122 108 129 169 187 178 167 143 131 127 123 123 123 130 133 135 144 168 171 168 191 212 233 238 225 222 226 230 240
301 297 291 293 234 211 200 229 257 257 265 213 155 125 150 145 136 144 121 119 124 121 124 131 132 131 124 124 128 129 129 135 129 146 175 188 189 187 217 252 254 251 252 248
269 278 297 317 255 289 234 203 199 229 191 205 86 140 161 160 150 150 125 130 126 125 126 126 125 125 125 123 121 122 123 140 159 163 169 191 205 218 229 240 245 257 269 266
246 318 298 245 249 228 255 240 216 120 158 175 177 188 122 20 147 130 134 131 123 125 122 122 128 124 128 124 124 135 158 168 170 173 187 199 201 218 234 226 232 241 247 247
169 226 252 247 282 29 49 352 74 102 106 73 52 110 38 29 355 164 138 138 130 130 132 132 136 132 128 130 145 149 169 177 163 170 179 183 179 140 67 46 345 295 292 303
275 210 240 231 120 54 14 67 268 120 130 128 113 96 191 51 11 351 34 131 130 125 123 125 133 134 136 153 146 140 134 144 135 130 119 104 103 82 55 331 292 305 305 302
246 238 235 259 278 143 80 246 284 137 146 124 88 102 85 58 70 302 344 311 122 118 123 129 127 128 128 128 133 148 126 120 105 108 113 126 125 129 14 291 303 301 305 302
312 273 290 205 337 120 184 226 344 98 117 108 112 120 102 94 91 244 280 299 110 115 119 122 118 117 129 141 152 129 125 123 119 122 116 134 131 197 288 287 288 290 298 326
97 227 319 323 168 297 294 113 263 119 134 138 146 166 141 112 160 219 245 242 133 129 134 134 136 144 155 166 136 135 130 137 140 141 129 149 175 256 279 272 268 299 135 340
50 2 27 329 309 333 127 211 239 148 147 159 166 169 143 159 168 175 221 174 140 143 153 147 142 137 143 133 135 134 139 137 138 152 205 232 236 238 263 321 15 38 349 320
114 73 309 313 284 190 308 214 179 133 161 174 143 131 132 179 143 214 198 144 127 122 118 103 119 112 107 106 112 128 134 137 179 168 229 297 241 251 45 186 87 345 10 10
92 98 266 262 284 305 318 262 143 116 108 134 118 107 77 296 305 198 138 131 99 69 68 81 49 53 82 93 92 88 84 69 75 46 39 20 49 43 40 62 66 85 84 62
63 338 281 268 276 277 299 223 127 118 98 83 130 130 153 187 182 96 114 115 112 118 106 115 150 112 91 73 82 81 90 52 78 60 55 67 56 57 45 359 71 64 84 79
115 76 292 286 260 261 259 128 104 98 94 100 109 109 111 101 96 99 106 104 104 105 110 124 117 93 86 93 66 53 78 86 88 68 53 56 52 66 80 63 43 34 63 58
60 127 169 273 293 288 263 111 106 105 107 105 104 107 106 104 102 101 95 95 110 132 131 102 99 83 61 73 56 24 104 90 77 56 28 31 67 66 57 47 38 42 34 26
182 168 196 227 279 282 142 119 115 119 115 113 108 109 111 112 112 108 102 103 97 94 85 81 77 77 58 45 31 12 121 116 79 57 64 67 71 65 52 60 52 48 49 24
238 208 230 236 246 148 134 127 121 118 117 111 108 102 100 99 96 90 87 88 92 89 90 91 88 89 67 43 34 12 346 71 107 78 77 71 55 61 68 69 60 46 65 34
18 10 74 236 162 134 119 106 104 106 104 106 103 100 98 98 111 108 104 97 85 75 74 77 73 85 73 48 30 32 68 80 80 88 79 68 77 69 66 60 52 47 36 21
66 47 21 41 329 127 117 113 113 114 111 111 104 97 101 110 114 115 114 107 103 100 100 97 69 103 84 53 25 53 88 104 87 75 71 70 76 72 61 55 55 57 39 22
94 83 45 44 341 30 100 105 107 102 97 104 107 100 91 97 112 110 105 97 102 114 98 84 84 82 83 68 61 45 66 59 74 81 84 69 79 76 71 60 55 48 18 23
102 107 97 78 354 340 354 45 100 100 102 106 108 110 100 83 103 119 109 104 70 87 85 84 83 96 76 64 73 79 76 69 83 80 85 91 87 89 83 69 36 26 360 352
124 117 108 107 145 78 320 327 82 96 100 106 99 99 100 92 79 84 93 125 137 143 94 85 89 67 84 44 102 84 85 90 89 93 87 103 108 101 96 97 267 277 243 258
138 139 139 141 144 139 143 70 54 114 126 120 118 121 119 128 129 122 119 123 100 105 103 109 119 106 71 83 78 98 84 75 103 118 128 142 132 130 152 204 257 346 15 6
149 153 146 147 142 131 136 147 126 118 128 109 116 119 115 108 74 74 89 88 109 109 110 134 114 68 25 103 89 85 62 59 49 50 64 69 80 80 67 60 54 30 32 40
146 154 152 155 155 159 154 143 140 135 114 113 111 100 120 123 128 140 106 109 138 116 121 134 134 96 61 119 98 97 91 78 66 55 61 70 69 75 48 54 61 60 45 48
159 163 152 158 153 142 124 128 130 128 126 124 122 101 96 109 117 120 122 137 130 137 135 150 176 127 101 100 102 113 107 87 73 75 76 77 81 76 44 59 64 69 67 55
171 164 168 144 144 141 142 137 131 138 146 139 127 138 131 138 134 133 146 154 161 152 130 147 105 110 113 107 109 112 113 108 100 91 86 71 77 73 42 60 78 81 65 62